星链-36802(STARLINK-36802)

导读

STARLINK-36802(NORAD编号67985)是SpaceX星链(Starlink)星座中的一颗低轨宽带卫星,隶属于SpaceX第二代星链网络。作为全球规模最大的卫星互联网星座组成部分,它配备相控阵天线与星间激光链路技术,可同时连接多地面终端,为全球提供高带宽、低延迟的互联网接入服务。 根据SpaceX 2026年太空安全计划,该卫星将随约4400颗星链卫星从550公里原轨道高度降至480公里,降低故障后的碰撞风险,加速残骸再入大气层烧毁,缓解近地轨道拥挤问题,规避凯斯勒碰撞级联效应。

Basic Information
目录编号:
67985
目录名称:
STARLINK-36802
国际标识:
2026-038AA
轨道中心:
EARTH
卫星名称:
星链-36802
卫星全名:
星链-36802(STARLINK-36802)
卫星状态:
在轨 (已飞行191 天)
发射日期:
2026-02-25 UTC
国别 :
美国 (US)
星等 :
--
Orbit Information
数据来源 国际轨道数据
星历时间: 2026-09-04T02:12:08+0800
9小时前
查看轨道信息
半长轴: 6843.723km
偏心率: 0.0001647
轨道倾角: 97.285°
近地点辐角 91.432°
升交点赤经 256.189°
平近点角 268.711°
近地点: 464.458km
远地点: 466.714km
周期: 93.907分钟
每日圈数: 15.334307
Detailed Information
固有亮度:
5
最大亮度:
2.5
卫星平台:
Starlink V1.0
覆盖范围:
全球
运营商:
太空探索技术公司
运营商所在国:
美国
制造商(研发单位):
太空探索技术公司
制造商所在国:
美国
使用方式:
暂无
Satellite Introduction
Starlink 计划是 SpaceX 推出的全球卫星互联网项目,通过发射低轨道卫星,为全球尤其是偏远地区提供高速、低延迟的互联网服务。自 2019 年起,Starlink 已部署数千颗卫星,旨在缩小全球数字鸿沟,推动互联网普及。该项目还为军事、航空等行业提供通信支持,带来广泛经济效益。
2D Orbit Map
3D Orbit Map
Orbit Altitude Analysis Chart
Orbit Inclination Analysis Chart
Orbit Comprehensive Analysis Chart
View Comprehensive Chart
Conjunction Data List
Event ID Objects TCA Miss Dist (km) Collision Risk Probability Collision Risk Index (CRI) Action
CDM_260828-173005-925606-798521
2026-08-28T
17:30:10+0000
1.496 km
极远距离
6.606387E-6 低风险 0.51
CDM_260830-114404-845806-798521
2026-08-30T
11:44:04+0000
2.917 km
极远距离
1.375155E-6 低风险 0.38
CDM_260828-124704-973306-798522
2026-08-28T
12:47:52+0000
2.973 km
极远距离
1.330459E-6 低风险 0.37
CDM_260831-211804-838606-798521
2026-08-31T
21:18:30+0000
2.823 km
极远距离
8.476121E-7 极低风险 0.34
CDM_260830-195004-316006-798521
2026-08-30T
19:50:37+0000
2.482 km
极远距离
4.487043E-7 极低风险 0.28